This demonstration page uses our WeatherBlox Daily Observations layout. Learn more.

Left ArrowRight Arrow

40.97296, -117.73568

Hourly Observations for August 17, 2020

Temp ( °F °C ) Dew Point ( °F °C ) Humidity (%) Winds ( mph kmh ) Pressure ( in mb ) Visibility ( mi km ) Precip ( " mm )
12:56 am 00:56 Clear 75 23.9 50 10 41 41 S 9 15 30.08 1019 10 16 0.00 0.00
1:56 am 01:56 Clear 74 23.3 51 10.6 45 45 ESE 5 7 30.07 1018 10 16 0.00 0.00
2:56 am 02:56 Partly Cloudy 78 25.6 48 8.9 35 35 ESE 12 19 30.05 1018 10 16 0.00 0.00
3:56 am 03:56 Clear 77 25 45 7.2 32 32 SSW 7 11 30.04 1017 10 16 0.00 0.00
5:56 am 05:56 Clear 67 19.4 47 8.3 49 49 NW 5 7 30.07 1018 10 16 0.00 0.00
6:56 am 06:56 Sunny 65 18.3 46 7.8 51 51 SE 3 6 30.10 1019 10 16 0.00 0.00
7:56 am 07:56 Sunny 76 24.4 48 8.9 37 37 SSE 3 6 30.09 1019 10 16 0.00 0.00
8:56 am 08:56 Sunny 83 28.3 46 7.8 27 27 E 6 9 30.08 1019 10 16 0.00 0.00
9:56 am 09:56 Sunny 88 31.1 45 7.2 22 22 VRB 6 9 30.09 1019 10 16 0.00 0.00
10:56 am 10:56 Sunny 92 33.3 45 7.2 20 20 Calm 30.06 1018 10 16 0.00 0.00
11:56 am 11:56 Sunny 95 35 40 4.4 15 15 SSE 5 7 30.05 1018 10 16 0.00 0.00
12:56 pm 12:56 Sunny 97 36.1 41 5 14 14 E 5 7 30.03 1017 10 16 0.00 0.00
1:56 pm 13:56 Sunny 99 37.2 40 4.4 13 13 VRB 3 6 30.01 1016 10 16 0.00 0.00
2:56 pm 14:56 Mostly Sunny 101 38.3 36 2.2 10 10 undefined N/A 29.97 1015 10 16 0.00 0.00
3:56 pm 15:56 Mostly Cloudy 102 38.9 36 2.2 10 10 SSE 7 11 29.94 1014 10 16 0.00 0.00
4:56 pm 16:56 Mostly Sunny 99 37.2 41 5 14 14 N 13 20 29.95 1014 10 16 0.00 0.00
5:56 pm 17:56 Mostly Sunny 100 37.8 41 5 13 13 NNW 16 26 29.95 1014 10 16 0.00 0.00
6:52 pm 18:52 Partly Cloudy with Thunderstorms 93 34 43 6 17 17 NNW 21 33 29.75 1007 10 16 0.00 0.00
6:56 pm 18:56 Partly Cloudy with Thunderstorms 93 33.9 43 6.1 18 18 NNW 18 30 30.02 1017 10 16 0.00 0.00
7:33 pm 19:33 Cloudy with Nearby Thunderstorms 89 31.7 47 8.3 23 23 NE 12 19 29.85 1011 10 16 0.00 0.00
7:56 pm 19:56 Mostly Cloudy with Nearby Thunderstorms 87 30.6 48 8.9 26 26 N 14 22 30.07 1018 3 5 0.00 0.00
8:08 pm 20:08 Mostly Cloudy with Haze 86 30 47 8.3 26 26 NW 12 19 29.87 1011 4 6 0.00 0.00
8:17 pm 20:17 Mostly Cloudy with Haze 87 30.6 47 8.3 25 25 N 8 13 29.87 1011 2 3 0.01 0.25
8:31 pm 20:31 Cloudy with Light Rain 84 28.9 51 10.6 32 32 NE 14 22 29.91 1013 4 6 0.01 0.25
8:56 pm 20:56 Mostly Cloudy 84 28.9 48 8.9 29 29 E 13 20 30.08 1019 9 14 0.02 0.51
9:24 pm 21:24 Mostly Cloudy with Nearby Thunderstorms 80 26.7 50 10 35 35 SW 32 52 30.00 1016 2 3 0.00 0.00
9:28 pm 21:28 Mostly Cloudy with Nearby Thunderstorms 77 25 52 11.1 42 42 SW 33 54 30.03 1017 1 1 0.00 0.00
9:33 pm 21:33 Mostly Cloudy with Nearby Thunderstorms 73 22.8 54 12.2 51 51 WSW 33 54 30.08 1019 1 2 0.00 0.00
9:35 pm 21:35 Mostly Cloudy with Haze 72 22.2 55 12.8 55 55 WSW 26 43 30.10 1019 2 3 0.00 0.00
9:37 pm 21:37 Mostly Cloudy with Haze 71 21.7 55 12.8 57 57 WSW 30 48 30.11 1019 4 6 0.00 0.00
9:56 pm 21:56 Mostly Cloudy 72 22.2 55 12.8 55 55 WSW 25 41 30.20 1023 10 16 0.00 0.00
10:46 pm 22:46 Cloudy with Light Rain 70 21.1 56 13.3 61 61 NNW 17 28 30.12 1020 10 16 0.00 0.00
10:56 pm 22:56 Mostly Cloudy with Light Rain 70 21.1 57 13.9 64 64 ENE 23 37 30.17 1022 10 16 0.00 0.00
11:03 pm 23:03 Mostly Cloudy with Light Rain 69 20.6 57 13.9 66 66 N 14 22 30.10 1019 10 16 0.00 0.00
11:56 pm 23:56 Clear 75 23.9 52 11.1 45 45 E 7 11 30.10 1019 10 16 0.04 1.02

Powered by AerisWeather